| time (UTC) | temp F | wind direction | speed MPH | gust MPH | rain 1hr in | rain 24hr in | rain mn in | humidity % | barometer mb |
| 20260508114604 | 64 | 229 | 3.0 | 9.0 | 0.00 | 0.00 | 0.00 | 29 | 1022.9 |
| 20260508113103 | 65 | 242 | 3.0 | 8.0 | 0.00 | 0.00 | 0.00 | 31 | 1022.8 |
| 20260508110604 | 64 | 189 | 1.0 | 10.0 | 0.00 | 0.00 | 0.00 | 35 | 1022.9 |
| 20260508104603 | 62 | 194 | 3.0 | 8.0 | 0.00 | 0.00 | 0.00 | 35 | 1023.0 |
| 20260508104103 | 62 | 227 | 3.0 | 8.0 | 0.00 | 0.00 | 0.00 | 33 | 1023.0 |
| 20260508103605 | 63 | 139 | 9.0 | 6.0 | 0.00 | 0.00 | 0.00 | 35 | 1023.0 |
| 20260508101603 | 64 | 169 | 6.0 | 6.0 | 0.00 | 0.00 | 0.00 | 34 | 1022.9 |
| 20260508101103 | 63 | 258 | 2.0 | 3.0 | 0.00 | 0.00 | 0.00 | 35 | 1022.8 |
| 20260508093103 | 61 | 0 | 0.0 | 12.0 | 0.00 | 0.00 | 0.00 | 36 | 1023.0 |
| 20260508091104 | 60 | 45 | 2.0 | 7.0 | 0.00 | 0.00 | 0.00 | 35 | 1023.0 |
| 20260508090114 | 59 | 126 | 1.0 | 8.0 | 0.00 | 0.00 | 0.00 | 35 | 1023.1 |
| 20260508084104 | 58 | 352 | 3.0 | 7.0 | 0.00 | 0.00 | 0.00 | 35 | 1022.9 |
| 20260508083604 | 58 | 42 | 7.0 | 5.0 | 0.00 | 0.00 | 0.00 | 35 | 1023.0 |
| 20260508081104 | 57 | 26 | 1.0 | 6.0 | 0.00 | 0.00 | 0.00 | 34 | 1022.9 |
| 20260508080603 | 57 | 67 | 5.0 | 8.0 | 0.00 | 0.00 | 0.00 | 35 | 1023.0 |
| 20260508074104 | 55 | 67 | 3.0 | 6.0 | 0.00 | 0.00 | 0.00 | 38 | 1022.9 |
| 20260508071605 | 53 | 31 | 3.0 | 8.0 | 0.00 | 0.00 | 0.00 | 40 | 1022.7 |
| 20260508071104 | 54 | 50 | 6.0 | 8.0 | 0.00 | 0.00 | 0.00 | 42 | 1022.7 |
| 20260508070114 | 53 | 88 | 2.0 | 8.0 | 0.00 | 0.00 | 0.00 | 42 | 1022.6 |
| 20260508064105 | 52 | 69 | 6.0 | 7.0 | 0.00 | 0.00 | 0.00 | 43 | 1022.6 |
| 20260508063104 | 51 | 112 | 5.0 | 5.0 | 0.00 | 0.00 | 0.00 | 44 | 1022.5 |
| 20260508061605 | 49 | 0 | 0.0 | 0.0 | 0.00 | 0.00 | 0.00 | 59 | 1022.5 |
| 20260508061104 | 48 | 0 | 0.0 | 0.0 | 0.00 | 0.00 | 0.00 | 59 | 1022.5 |
| 20260508054604 | 46 | 0 | 0.0 | 0.0 | 0.00 | 0.00 | 0.00 | 64 | 1022.2 |
| 20260508051104 | 42 | 0 | 0.0 | 0.0 | 0.00 | 0.00 | 0.00 | 71 | 1022.2 |
| 20260508050115 | 40 | 0 | 0.0 | 0.0 | 0.00 | 0.00 | 0.00 | 75 | 1022.1 |
| 20260508043603 | 35 | 0 | 0.0 | 0.0 | 0.00 | 0.00 | 0.00 | 81 | 1021.9 |
| 20260508043103 | 35 | 0 | 0.0 | 0.0 | 0.00 | 0.00 | 0.00 | 82 | 1021.9 |
| 20260508041603 | 34 | 0 | 0.0 | 0.0 | 0.00 | 0.00 | 0.00 | 81 | 1022.0 |
| 20260508041104 | 34 | 0 | 0.0 | 0.0 | 0.00 | 0.00 | 0.00 | 82 | 1021.9 |
| 20260508040115 | 33 | 0 | 0.0 | 0.0 | 0.00 | 0.00 | 0.00 | 84 | 1021.9 |
| 20260508033604 | 31 | 0 | 0.0 | 0.0 | 0.00 | 0.00 | 0.00 | 85 | 1021.5 |
| 20260508033104 | 31 | 0 | 0.0 | 0.0 | 0.00 | 0.00 | 0.00 | 85 | 1021.5 |
| 20260508031604 | 31 | 0 | 0.0 | 0.0 | 0.00 | 0.00 | 0.00 | 84 | 1021.4 |
| 20260508031104 | 31 | 0 | 0.0 | 0.0 | 0.00 | 0.00 | 0.00 | 84 | 1021.4 |
| 20260508030604 | 31 | 0 | 0.0 | 0.0 | 0.00 | 0.00 | 0.00 | 85 | 1021.4 |
| 20260508024604 | 31 | 0 | 0.0 | 0.0 | 0.00 | 0.00 | 0.00 | 85 | 1021.3 |
| 20260508024104 | 32 | 0 | 0.0 | 0.0 | 0.00 | 0.00 | 0.00 | 84 | 1021.3 |
| 20260508023604 | 32 | 0 | 0.0 | 0.0 | 0.00 | 0.00 | 0.00 | 84 | 1021.3 |
| 20260508021104 | 33 | 0 | 0.0 | 0.0 | 0.00 | 0.00 | 0.00 | 83 | 1021.2 |
| 20260508020114 | 33 | 0 | 0.0 | 0.0 | 0.00 | 0.00 | 0.00 | 83 | 1021.2 |
| 20260508014604 | 33 | 0 | 0.0 | 0.0 | 0.00 | 0.00 | 0.00 | 83 | 1021.1 |
| 20260508014103 | 33 | 0 | 0.0 | 0.0 | 0.00 | 0.00 | 0.00 | 82 | 1021.0 |
| 20260508013104 | 33 | 0 | 0.0 | 0.0 | 0.00 | 0.00 | 0.00 | 82 | 1020.9 |
| 20260508011103 | 34 | 0 | 0.0 | 0.0 | 0.00 | 0.00 | 0.00 | 81 | 1021.0 |
| 20260508010604 | 34 | 0 | 0.0 | 0.0 | 0.00 | 0.00 | 0.00 | 81 | 1020.9 |
| 20260508010115 | 34 | 0 | 0.0 | 0.0 | 0.00 | 0.00 | 0.00 | 83 | 1020.9 |
| 20260508004604 | 34 | 0 | 0.0 | 0.0 | 0.00 | 0.00 | 0.00 | 80 | 1020.9 |
| 20260508001103 | 35 | 0 | 0.0 | 0.0 | 0.00 | 0.00 | 0.00 | 78 | 1020.6 |
| 20260508000603 | 35 | 0 | 0.0 | 0.0 | 0.00 | 0.00 | 0.00 | 78 | 1020.6 |
| 20260508000114 | 35 | 0 | 0.0 | 1.0 | 0.00 | 0.00 | 0.00 | 77 | 1020.6 |
| 20260507231604 | 36 | 21 | 1.0 | 1.0 | 0.00 | 0.00 | 0.00 | 74 | 1020.3 |
| 20260507230603 | 36 | 29 | 1.0 | 1.0 | 0.00 | 0.00 | 0.00 | 72 | 1020.2 |
| 20260507230115 | 36 | 29 | 1.0 | 1.0 | 0.00 | 0.00 | 0.00 | 71 | 1020.1 |
| 20260507224604 | 37 | 0 | 0.0 | 0.0 | 0.00 | 0.00 | 0.00 | 68 | 1020.2 |
| 20260507221605 | 38 | 0 | 0.0 | 0.0 | 0.00 | 0.00 | 0.00 | 63 | 1020.0 |
| 20260507214604 | 40 | 0 | 0.0 | 0.0 | 0.00 | 0.00 | 0.00 | 59 | 1020.0 |
| 20260507213604 | 41 | 0 | 0.0 | 0.0 | 0.00 | 0.00 | 0.00 | 58 | 1019.9 |
| 20260507213103 | 41 | 0 | 0.0 | 0.0 | 0.00 | 0.00 | 0.00 | 57 | 1019.9 |
| 20260507211605 | 41 | 0 | 0.0 | 0.0 | 0.00 | 0.00 | 0.00 | 56 | 1019.7 |
| 20260507211104 | 41 | 0 | 0.0 | 1.0 | 0.00 | 0.00 | 0.00 | 56 | 1019.7 |
| 20260507210604 | 41 | 0 | 0.0 | 1.0 | 0.00 | 0.00 | 0.00 | 56 | 1019.6 |
| 20260507204604 | 44 | 0 | 0.0 | 2.0 | 0.00 | 0.00 | 0.00 | 51 | 1019.5 |
| 20260507204104 | 44 | 0 | 0.0 | 2.0 | 0.00 | 0.00 | 0.00 | 50 | 1019.5 |
| 20260507203604 | 44 | 349 | 1.0 | 2.0 | 0.00 | 0.00 | 0.00 | 50 | 1019.4 |
| 20260507203104 | 45 | 0 | 0.0 | 2.0 | 0.00 | 0.00 | 0.00 | 49 | 1019.4 |
| 20260507200604 | 47 | 0 | 0.0 | 2.0 | 0.00 | 0.00 | 0.00 | 46 | 1019.1 |
| 20260507194604 | 48 | 5 | 0.0 | 2.0 | 0.00 | 0.00 | 0.00 | 44 | 1019.0 |
| 20260507193104 | 50 | 333 | 1.0 | 2.0 | 0.00 | 0.00 | 0.00 | 40 | 1018.8 |
| 20260507191603 | 51 | 300 | 1.0 | 2.0 | 0.00 | 0.00 | 0.00 | 37 | 1018.7 |
| 20260507191104 | 52 | 307 | 0.0 | 2.0 | 0.00 | 0.00 | 0.00 | 36 | 1018.7 |
| 20260507190115 | 52 | 299 | 1.0 | 3.0 | 0.00 | 0.00 | 0.00 | 36 | 1018.5 |
| 20260507183604 | 54 | 338 | 1.0 | 5.0 | 0.00 | 0.00 | 0.00 | 32 | 1018.2 |
| 20260507183104 | 55 | 319 | 1.0 | 9.0 | 0.00 | 0.00 | 0.00 | 32 | 1018.1 |
| 20260507181604 | 55 | 315 | 5.0 | 9.0 | 0.00 | 0.00 | 0.00 | 30 | 1018.0 |
| 20260507180115 | 56 | 297 | 3.0 | 10.0 | 0.00 | 0.00 | 0.00 | 29 | 1017.9 |
| 20260507174104 | 57 | 289 | 3.0 | 12.0 | 0.00 | 0.00 | 0.00 | 29 | 1017.7 |
| 20260507173104 | 57 | 231 | 6.0 | 9.0 | 0.00 | 0.00 | 0.00 | 29 | 1017.6 |
| 20260507171104 | 57 | 334 | 7.0 | 12.0 | 0.00 | 0.00 | 0.00 | 29 | 1017.5 |
| 20260507170604 | 58 | 299 | 3.0 | 9.0 | 0.00 | 0.00 | 0.00 | 30 | 1017.5 |
| 20260507164604 | 59 | 276 | 3.0 | 5.0 | 0.00 | 0.00 | 0.00 | 29 | 1017.3 |
| 20260507164104 | 58 | 345 | 1.0 | 12.0 | 0.00 | 0.00 | 0.00 | 31 | 1017.2 |
| 20260507163604 | 58 | 278 | 7.0 | 12.0 | 0.00 | 0.00 | 0.00 | 30 | 1017.3 |
| 20260507163104 | 59 | 275 | 8.0 | 10.0 | 0.00 | 0.00 | 0.00 | 31 | 1017.3 |
| 20260507160115 | 59 | 306 | 9.0 | 12.0 | 0.00 | 0.00 | 0.00 | 31 | 1017.1 |
| 20260507154104 | 59 | 297 | 5.0 | 10.0 | 0.00 | 0.00 | 0.00 | 30 | 1017.0 |
| 20260507153604 | 59 | 278 | 5.0 | 10.0 | 0.00 | 0.00 | 0.00 | 29 | 1016.9 |
| 20260507153103 | 59 | 300 | 7.0 | 13.0 | 0.00 | 0.00 | 0.00 | 29 | 1016.8 |
| 20260507151104 | 60 | 331 | 3.0 | 12.0 | 0.00 | 0.00 | 0.00 | 29 | 1016.8 |
| 20260507144103 | 60 | 284 | 8.0 | 10.0 | 0.00 | 0.00 | 0.00 | 30 | 1016.8 |
| 20260507143604 | 60 | 242 | 5.0 | 10.0 | 0.00 | 0.00 | 0.00 | 30 | 1016.9 |
| 20260507143103 | 60 | 228 | 7.0 | 12.0 | 0.00 | 0.00 | 0.00 | 31 | 1016.9 |
| 20260507133604 | 60 | 0 | 2.0 | 8.0 | 0.00 | 0.00 | 0.00 | 34 | 1016.7 |
| 20260507131603 | 61 | 5 | 1.0 | 12.0 | 0.00 | 0.00 | 0.00 | 33 | 1016.6 |
| 20260507124604 | 58 | 53 | 2.0 | 8.0 | 0.00 | 0.00 | 0.00 | 36 | 1016.5 |
| 20260507124105 | 59 | 332 | 3.0 | 8.0 | 0.00 | 0.00 | 0.00 | 36 | 1016.6 |
| 20260507123104 | 59 | 79 | 1.0 | 9.0 | 0.00 | 0.00 | 0.00 | 37 | 1016.5 |